Location: Allerey
(47.4505°N, 4.3445°E)
Time: 23:43:12
(UTC+00:00)

Daily predictions for brighter satellites

Satellite Brightness Start Highest point End
(mag) Time Altitude Azimuth Time Altitude Azimuth Time Altitude Azimuth
BREEZE-M (TANK) 4.4 17:34:45 10° WNW 17:39:05 86° NNE 17:58:51 10° ESE
Cosmos 1844 Rocket 3.2 17:57:55 10° S 18:02:56 35° ESE 18:07:58 10° NE
Cosmos 372 Rocket 4.0 17:59:36 10° S 18:04:45 62° ESE 18:09:54 10° NNE
Cosmos 1707 2.8 18:01:12 10° N 18:04:58 52° ENE 18:08:42 10° SSE
NOSS 3-2 (C) 4.2 17:58:56 10° NW 18:06:10 59° NE 18:14:24 10° ESE
Cosmos 1844 4.3 18:05:21 10° SSE 18:10:23 33° ESE 18:15:23 10° NE
ISS -3.4 18:07:27 10° WSW 18:10:48 66° NNW 18:14:10 10° ENE
USA 186 3.7 18:11:26 10° ESE 18:13:21 15° ENE 18:15:17 10° NNE
Meteor 1-12 Rocket 4.4 18:08:34 10° S 18:14:15 54° E 18:19:53 10° NNE
Cosmos 1300 Rocket 3.7 18:15:18 10° S 18:19:35 53° E 18:23:55 10° NNE
Okean 1 Rocket 4.3 18:19:37 10° SE 18:22:59 21° E 18:26:23 10° NE
Sich 1 Rocket 3.7 18:19:23 10° S 18:23:54 89° WNW 18:28:30 10° N
NOSS 2-2 (E) 4.3 18:21:22 10° WSW 18:24:47 45° NW 18:28:46 10° NNE
CENTAUR R/B 3.3 18:17:21 10° NW 18:25:17 69° NE 18:34:02 10° SE
Cosmos 2298 Rocket 4.0 18:20:46 10° S 18:26:01 65° ESE 18:31:19 10° NNE
Cosmos 1833 Rocket 4.1 18:22:14 10° N 18:26:32 21° NE 18:30:12 12° E
CSL-04 Debris 4.1 18:24:57 10° SSE 18:30:20 81° ENE 18:35:46 10° NNW
CSL-04 Rocket 3.7 18:26:51 10° SSE 18:32:18 80° ENE 18:37:51 10° NNW
Okean 2 Rocket 3.0 18:29:38 10° S 18:34:06 76° E 18:38:35 10° NNE
ATLAS 2AS CENTAUR R/B 3.6 18:27:14 10° S 18:34:07 34° ESE 18:41:01 10° NE
Cosmos 1025 Rocket 3.0 18:30:00 10° N 18:34:24 78° E 18:38:48 10° SSE
NOSS 2-2 (D) 4.2 18:31:13 10° WSW 18:34:39 46° NW 18:38:33 10° NNE
YAOGAN 1 3.0 18:30:37 10° S 18:34:55 66° WSW 18:39:15 10° NNW
ATLAS 3B R/B 3.5 18:31:10 10° NNW 18:37:23 36° NNE 18:42:35 15° E
SWAS 4.4 18:35:55 10° NNW 18:40:15 77° ENE 18:44:31 10° SSE
Abrixas rocket 1.8 18:37:45 10° WNW 18:40:36 74° SSW 18:42:11 23° ESE
Cosmos 1513 Rocket 4.5 18:35:26 10° S 18:41:40 87° E 18:47:50 10° N
CREW DRAGON DEMO-1 DEB 2.7 18:39:30 10° WNW 18:42:32 89° NNE 18:44:16 23° ESE
Cosmos 1536 Rocket 3.5 18:39:43 10° N 18:44:11 74° E 18:48:40 10° SSE
Cosmos 1125 Rocket 3.5 18:41:27 10° S 18:46:40 61° ESE 18:51:55 10° NNE
SJ-6B 3.5 18:48:31 21° ESE 18:50:14 32° ENE 18:53:38 10° N
CZ-4 R/B 3.2 18:48:44 10° SSW 18:52:37 35° W 18:56:28 10° NNW
SJ-11-01 4.5 18:48:52 10° S 18:53:34 74° WSW 18:58:17 10° NNW
Cosmos 2150 Rocket 4.2 18:48:11 10° SSW 18:53:36 84° WNW 18:59:06 10° NNE
USA 238 DEB 4.2 18:47:25 10° NW 18:54:35 69° SW 19:02:02 10° SSE
CZ-2C R/B 3.7 18:49:20 10° S 18:54:39 64° W 19:00:18 10° NNW
USA 238 4.2 18:47:32 10° NW 18:54:42 69° SW 19:02:09 10° SSE
Cosmos 1464 Rocket 4.1 18:48:54 10° SSW 18:55:02 79° W 19:01:17 10° N
Cosmos 1674 2.6 18:52:43 10° N 18:56:35 67° E 19:00:17 11° SSE
Cosmos 2026 Rocket 4.4 18:51:12 10° N 18:57:16 44° ENE 19:02:17 15° SE
Cosmos 2285 Rocket 4.0 18:51:12 10° S 18:57:23 61° ESE 19:03:38 10° NNE
Cosmos 1092 Rocket 4.1 18:51:28 10° N 18:57:32 56° ENE 19:03:37 10° SSE
MOS 1 Rocket 3.0 18:58:42 10° NNE 19:03:07 88° ESE 19:07:23 10° SSW
FREGAT/IRIS 3.5 19:04:40 27° NE 19:04:40 27° NE 19:06:22 10° N
TSX-5 4.2 19:04:52 10° S 19:08:32 45° ESE 19:13:11 10° NE
ARGOS 3.3 19:04:51 10° S 19:10:13 78° WSW 19:15:38 10° NNW
CZ-2C R/B 2.8 19:07:53 10° NNE 19:13:23 54° E 19:18:51 10° S
Cosmos 1340 Rocket 3.7 19:15:11 30° ENE 19:15:11 30° ENE 19:17:57 10° NNE
Cosmos 1733 3.2 19:13:48 22° SSE 19:16:00 52° E 19:19:45 10° NNE
Cosmos 2151 Rocket 4.3 19:12:26 10° SSW 19:16:50 55° WNW 19:21:17 10° N
MOS 1 4.2 19:13:05 16° SSE 19:17:37 70° ENE 19:23:19 10° N
Lacrosse 5 rocket 3.1 19:14:55 10° NW 19:18:38 26° N 19:20:43 19° NE
Cosmos 2082 Rocket 3.2 19:14:58 10° N 19:19:49 29° NE 19:21:17 25° ENE
BREEZE-M DEB (TANK) 3.9 19:19:26 10° W 19:22:41 43° SSW 19:27:36 20° SE
DMSP B5D2-2 4.1 19:17:59 10° NNE 19:23:13 56° E 19:28:23 10° S
BREEZE-M R/B 3.8 19:12:56 10° WSW 19:23:16 82° SSE 19:24:25 41° E
Meteor 1-15 Rocket 4.4 19:21:52 10° SSW 19:27:31 76° WNW 19:33:19 10° N
Cosmos 1805 3.3 19:24:00 10° SSW 19:27:54 80° W 19:31:51 10° N
OBJECT-B 1.7 19:28:48 36° NNE 19:28:48 36° NNE 19:31:05 10° N
Milstar 3 Cent rocket 4.3 19:29:24 10° SSW 19:31:30 12° S 19:32:39 11° S
Ariane Rocket 3.0 19:28:06 17° S 19:32:04 81° WSW 19:37:11 10° NNW
SL-08 RB Rocket 4.1 19:27:52 11° S 19:32:10 63° W 19:36:41 10° NNW
H-2A R/B 3.5 19:29:06 10° SSW 19:33:41 37° W 19:38:27 10° NNW
Cosmos 1269 Rocket 4.0 19:31:31 10° NNW 19:36:51 81° WSW 19:39:33 30° SSE
Cosmos 1626 2.0 19:38:09 10° N 19:41:53 85° WSW 19:42:02 81° SSW
Okean 1-7 Rocket 4.0 19:37:47 10° N 19:41:51 45° ENE 19:41:51 45° ENE
MetOp-A 4.1 19:40:20 25° S 19:43:36 81° WSW 19:49:00 10° NNW
USA 186 3.2 19:42:34 27° SW 19:43:44 37° W 19:46:50 10° NNW
COSMOS 2406 3.1 19:40:23 10° NNW 19:46:06 84° ENE 19:47:55 45° SSE
Cosmos 1844 Rocket 3.9 19:41:29 10° SW 19:46:44 41° NW 19:52:03 10° NNE
ISS -2.6 19:44:45 10° WNW 19:47:46 38° N 19:47:46 38° N
Cosmos 2278 Rocket 2.4 19:45:12 10° S 19:51:32 47° E 19:56:08 10° NE
Lacrosse 4 Rocket 2.3 19:49:44 10° NNW 19:52:52 37° NNE 19:52:52 37° NNE
Meteor 1-22 Rocket 4.3 19:49:26 10° S 19:55:22 88° WNW 20:01:30 10° N
Meteor 2-5 Rocket 4.3 19:50:43 10° NNW 19:56:16 58° W 20:00:46 16° S
Meteor 1-24 Rocket 3.9 19:53:05 10° NNW 19:58:39 71° W 20:01:37 29° S
Exosat Rocket 4.4 19:53:36 10° SW 19:58:42 49° WNW 20:03:37 10° NNE
Cosmos 909 Rocket 4.3 19:52:17 10° NNW 19:58:44 53° NE 19:59:55 47° E
Okean 1 Rocket 4.3 19:56:21 10° SSW 20:00:36 42° WNW 20:04:54 10° N
Cosmos 2266 Rocket 4.4 19:55:08 10° N 20:00:33 41° ENE 20:00:33 41° ENE
SL-14 R/B 3.7 19:57:55 10° NNW 20:01:49 58° W 20:01:55 58° WSW
NOSS 3-4 (A) 3.4 19:55:55 10° SW 20:01:51 80° NW 20:08:15 10° NE
NOSS 3-4 (C) 3.4 19:56:02 10° SW 20:01:57 80° NW 20:08:22 10° NE
Resurs 01 Rocket 1.9 20:03:26 59° NNE 20:03:26 59° NNE 20:07:14 10° N
Meteor 2-19 Rocket 4.3 19:56:44 10° N 20:02:50 68° ENE 20:03:47 59° SE
Cosmos 1833 Rocket 2.6 20:05:30 10° NNW 20:11:12 85° WSW 20:11:54 69° S
Cosmos 2251 Rocket 3.6 20:08:45 10° NNW 20:13:44 62° NE 20:13:44 62° NE
CENTAUR R/B 4.2 20:08:25 10° NW 20:15:53 40° WSW 20:22:00 17° S
ARIANE 5 R/B 3.9 20:20:05 33° N 20:20:05 33° N 20:22:36 10° N
SPOT 3 Rocket 3.8 20:20:50 59° SW 20:21:28 64° WSW 20:26:36 10° NNW
ATLAS 2AS CENTAUR R/B 3.2 20:16:44 10° SW 20:24:41 72° NW 20:32:34 10° NE
Resurs 1-3 4.5 20:26:18 46° W 20:26:18 46° W 20:30:28 10° NNW
ATLAS 3B R/B 2.8 20:21:46 10° NW 20:28:38 73° SW 20:29:50 60° S
SPOT 5 4.5 20:33:48 28° NNE 20:33:48 28° NNE 20:36:51 10° N
Meteor 1-21 Rocket 4.4 20:28:14 10° N 20:33:15 64° NNE 20:33:15 64° NNE
Cosmos 1655 Rocket 3.9 20:31:17 10° N 20:37:36 85° W 20:37:50 82° SSW
Lacrosse 5 rocket 3.4 20:54:06 10° NW 20:56:20 28° NW 20:56:20 28° NW
Cosmos 2098 Rocket 4.3 20:55:24 10° NNW 21:01:45 56° W 21:01:45 56° W
Cosmos 2082 Rocket 3.0 20:58:45 10° NW 21:03:08 48° WNW 21:03:08 48° WNW
Terra 4.0 21:21:45 20° N 21:21:45 20° N 21:23:16 10° N
Lacrosse 4 Rocket 4.5 21:28:50 10° WNW 21:29:10 12° WNW 21:29:10 12° WNW
Cosmos 2278 Rocket 3.8 21:33:01 25° W 21:35:01 31° NW 21:40:01 10° NNE
